Overview Statistics Trail Chart Weather Telemetry Raw packets
 

This is the latest recevied weather packets stored in our database for station/object SV1JSO-13. If no packets are shown the sender has not sent any weather packets the latest 10 day(s).

<< 70 71 72 73 74 75 76 >>
Time Temp. Humidity Pressure Rain* Wind** Luminosity Snow
1788166800 30.56° C 41% 1009.8 hPa 0 mm - 667 W/m² -
1788166500 29.44° C 42% 1009.8 hPa 0 mm - 659 W/m² -
1788166200 29.44° C 43% 1009.9 hPa 0 mm - 648 W/m² -
1788165900 29.44° C 46% 1010 hPa 0 mm - 643 W/m² -
1788165600 29.44° C 51% 1010 hPa 0 mm - 634 W/m² -
1788165300 29.44° C 49% 1010 hPa 0 mm - 624 W/m² -
1788165000 29.44° C 52% 1010.1 hPa 0 mm - 613 W/m² -
1788164700 29.44° C 50% 1010.2 hPa 0 mm - 606 W/m² -
1788164400 28.89° C 49% 1010 hPa 0 mm - 594 W/m² -
1788164100 28.89° C 50% 1010.1 hPa 0 mm - 583 W/m² -
1788163807 28.89° C 53% 1009.9 hPa 0 mm - 570 W/m² -
1788163500 28.89° C 46% 1009.9 hPa 0 mm - 560 W/m² -
1788163200 29.44° C 45% 1010 hPa 0 mm - 548 W/m² -
1788162900 28.89° C 45% 1009.9 hPa 0 mm - 540 W/m² -
1788162600 28.33° C 48% 1010 hPa 0 mm - 528 W/m² -
1788162300 28.89° C 48% 1010 hPa 0 mm - 516 W/m² -
1788162000 28.89° C 49% 1009.9 hPa 0 mm - 500 W/m² -
1788161700 28.89° C 47% 1010 hPa 0 mm - 486 W/m² -
1788161400 28.33° C 48% 1009.9 hPa 0 mm - 476 W/m² -
1788161100 28.33° C 47% 1009.8 hPa 0 mm - 462 W/m² -
1788160800 28.33° C 48% 1009.8 hPa 0 mm - 449 W/m² -
1788160500 28.33° C 49% 1009.8 hPa 0 mm - 436 W/m² -
1788160200 28.33° C 51% 1009.8 hPa 0 mm - 421 W/m² -
1788159900 28.33° C 51% 1009.8 hPa 0 mm - 406 W/m² -
1788159600 28.33° C 51% 1009.8 hPa 0 mm - 387 W/m² -

* Rain latest hour (hover to see other rain measurements)
** Current wind speed in m/s (hover to see current wind gust speed)